カタログに戻る

SL-12 R/B(2)

運用中GEO
NORAD 21824·ROCKET BODY·🇷🇺 Russia

打ち上げ Dec 19, 1991 から Baikonur Cosmodrome

Loading…

TLE

最新Source: Space-Track

元期: Sep 14, 2026, 12:47 UTC

1 21824U 91087D   26257.53283994 -.00000217  00000-0  00000-0 0  9998
2 21824  14.3141 343.6002 0013986  82.7233 274.5574  0.98021467124348

AllMySatでSL-12 R/B(2)をリアルタイム追跡

Download on the App Store